QPF
0.00 0.00 0.00 0.00 0.00 0.00 0.00 0.00 0.00 0.00 0.00 0.00 0.00 0.01 0.01 0.02 0.10 0.16 0.18 0.17 0.16 0.11 0.07 0.02 0.02 0.03 0.02 0.04 0.08 0.10 0.13 0.11 0.09 0.04 0.08 0.14 0.06 0.00 0.01 0.01 0.00 0.00 0.00
0.00 0.00 0.00 0.00 0.00 0.00 0.00 0.00 0.00 0.00 0.00 0.00 0.04 0.05 0.01 0.01 0.09 0.12 0.07 0.05 0.04 0.04 0.03 0.03 0.01 0.02 0.01 0.03 0.14 0.16 0.12 0.17 0.17 0.08 0.09 0.13 0.12 0.03 0.00 0.00 0.00 0.00 0.00
0.00 0.00 0.00 0.00 0.00 0.00 0.00 0.00 0.00 0.01 0.01 0.02 0.03 0.07 0.07 0.07 0.12 0.16 0.13 0.08 0.03 0.04 0.03 0.04 0.03 0.03 0.03 0.03 0.06 0.19 0.16 0.13 0.10 0.07 0.04 0.08 0.07 0.03 0.02 0.00 0.00 0.00 0.00
0.00 0.00 0.00 0.00 0.00 0.00 0.00 0.00 0.00 0.01 0.01 0.01 0.03 0.04 0.07 0.13 0.15 0.12 0.18 0.20 0.15 0.14 0.13 0.10 0.11 0.08 0.08 0.05 0.04 0.03 0.06 0.05 0.02 0.03 0.05 0.01 0.02 0.01 0.02 0.01 0.01 0.00 0.00
0.00 0.00 0.00 0.00 0.00 0.00 0.00 0.01 0.00 0.00 0.00 0.00 0.01 0.03 0.04 0.08 0.11 0.14 0.18 0.23 0.16 0.13 0.11 0.08 0.06 0.05 0.04 0.04 0.04 0.05 0.03 0.02 0.02 0.02 0.01 0.00 0.00 0.00 0.00 0.00 0.00 0.00 0.00
0.00 0.00 0.00 0.00 0.00 0.00 0.00 0.00 0.00 0.00 0.00 0.00 0.02 0.01 0.00 0.02 0.02 0.05 0.10 0.14 0.14 0.11 0.08 0.05 0.05 0.04 0.03 0.03 0.02 0.02 0.02 0.02 0.01 0.01 0.01 0.00 0.00 0.00 0.00 0.00 0.00 0.01 0.01
0.00 0.00 0.00 0.00 0.00 0.00 0.00 0.00 0.00 0.00 0.00 0.01 0.02 0.02 0.01 0.02 0.02 0.01 0.02 0.05 0.07 0.09 0.09 0.06 0.05 0.03 0.02 0.02 0.01 0.01 0.01 0.00 0.00 0.00 0.00 0.00 0.00 0.00 0.00 0.00 0.00 0.00 0.00
0.00 0.00 0.00 0.00 0.00 0.00 0.00 0.00 0.00 0.00 0.00 0.00 0.00 0.00 0.00 0.00 0.00 0.00 0.00 0.01 0.02 0.03 0.03 0.03 0.02 0.02 0.01 0.00 0.00 0.00 0.00 0.00 0.00 0.00 0.00 0.00 0.00 0.00 0.00 0.00 0.00 0.00 0.00
0.00 0.00 0.00 0.00 0.00 0.00 0.00 0.00 0.00 0.00 0.00 0.00 0.00 0.00 0.00 0.00 0.00 0.00 0.00 0.00 0.00 0.00 0.00 0.00 0.00 0.00 0.00 0.00 0.00 0.00 0.00 0.00 0.00 0.00 0.00 0.00 0.00 0.00 0.00 0.00 0.00 0.00 0.00
0.00 0.00 0.00 0.00 0.00 0.00 0.00 0.00 0.00 0.00 0.00 0.00 0.00 0.00 0.00 0.00 0.00 0.00 0.00 0.00 0.00 0.00 0.00 0.00 0.00 0.00 0.00 0.00 0.00 0.00 0.00 0.00 0.00 0.00 0.00 0.00 0.00 0.00 0.00 0.00 0.00 0.00 0.00
0.00 0.00 0.00 0.00 0.00 0.00 0.00 0.00 0.00 0.00 0.00 0.00 0.00 0.00 0.00 0.00 0.00 0.00 0.00 0.00 0.00 0.00 0.00 0.00 0.00 0.00 0.00 0.00 0.00 0.00 0.00 0.00 0.00 0.00 0.00 0.00 0.00 0.00 0.00 0.00 0.00 0.00 0.00
0.00 0.00 0.00 0.00 0.00 0.00 0.00 0.00 0.00 0.00 0.00 0.00 0.00 0.00 0.00 0.00 0.00 0.00 0.00 0.00 0.00 0.00 0.00 0.00 0.00 0.00 0.00 0.00 0.00 0.00 0.00 0.00 0.00 0.00 0.00 0.00 0.00 0.00 0.00 0.00 0.00 0.00 0.00
0.00 0.00 0.00 0.00 0.00 0.00 0.00 0.00 0.00 0.00 0.00 0.00 0.00 0.00 0.00 0.00 0.00 0.00 0.00 0.00 0.00 0.00 0.00 0.00 0.00 0.00 0.00 0.00 0.00 0.00 0.00 0.00 0.00 0.00 0.00 0.00 0.00 0.00 0.00 0.00 0.00 0.00 0.00
0.00 0.00 0.00 0.00 0.00 0.00 0.00 0.00 0.00 0.00 0.00 0.00 0.00 0.00 0.00 0.00 0.00 0.00 0.00 0.00 0.00 0.00 0.00 0.00 0.00 0.00 0.00 0.00 0.00 0.00 0.00 0.00 0.00 0.00 0.00 0.00 0.00 0.00 0.00 0.00 0.00 0.00 0.00
0.00 0.00 0.00 0.00 0.00 0.00 0.00 0.00 0.00 0.00 0.00 0.00 0.00 0.00 0.00 0.00 0.00 0.00 0.00 0.00 0.00 0.00 0.00 0.00 0.00 0.00 0.00 0.00 0.00 0.00 0.00 0.00 0.00 0.00 0.00 0.00 0.00 0.00 0.00 0.00 0.00 0.00 0.00
0.00 0.00 0.00 0.00 0.00 0.00 0.00 0.00 0.00 0.00 0.00 0.00 0.00 0.00 0.00 0.00 0.00 0.00 0.00 0.00 0.00 0.00 0.00 0.00 0.00 0.00 0.00 0.00 0.00 0.00 0.00 0.00 0.00 0.00 0.00 0.00 0.00 0.00 0.00 0.00 0.00 0.00 0.00
0.00 0.00 0.00 0.00 0.00 0.00 0.00 0.00 0.00 0.00 0.00 0.00 0.00 0.00 0.00 0.00 0.00 0.00 0.00 0.00 0.00 0.00 0.00 0.00 0.00 0.00 0.00 0.00 0.00 0.00 0.00 0.00 0.00 0.00 0.00 0.00 0.00 0.00 0.00 0.00 0.00 0.00 0.00
0.00 0.00 0.00 0.00 0.00 0.00 0.00 0.00 0.00 0.00 0.00 0.00 0.00 0.00 0.00 0.00 0.00 0.00 0.00 0.00 0.00 0.00 0.00 0.00 0.00 0.00 0.00 0.00 0.00 0.00 0.00 0.00 0.00 0.00 0.00 0.00 0.00 0.00 0.00 0.00 0.00 0.00 0.00
0.00 0.00 0.00 0.00 0.00 0.00 0.00 0.00 0.00 0.00 0.00 0.00 0.00 0.00 0.00 0.00 0.00 0.00 0.00 0.00 0.00 0.00 0.00 0.00 0.00 0.00 0.00 0.00 0.00 0.00 0.00 0.00 0.00 0.00 0.00 0.00 0.00 0.00 0.00 0.00 0.00 0.00 0.00
0.00 0.00 0.00 0.00 0.00 0.00 0.00 0.00 0.00 0.00 0.00 0.00 0.00 0.00 0.00 0.00 0.00 0.00 0.00 0.00 0.00 0.00 0.00 0.00 0.00 0.00 0.00 0.00 0.00 0.00 0.00 0.00 0.00 0.00 0.00 0.00 0.00 0.00 0.00 0.00 0.00 0.00 0.00
0.00 0.00 0.00 0.00 0.00 0.00 0.00 0.00 0.00 0.00 0.00 0.00 0.00 0.00 0.00 0.00 0.00 0.00 0.00 0.00 0.00 0.00 0.00 0.00 0.00 0.00 0.00 0.00 0.00 0.00 0.00 0.00 0.00 0.00 0.00 0.00 0.00 0.00 0.00 0.00 0.00 0.00 0.00
0.00 0.00 0.00 0.00 0.00 0.00 0.00 0.00 0.00 0.00 0.00 0.00 0.00 0.00 0.00 0.00 0.00 0.00 0.00 0.00 0.00 0.00 0.00 0.00 0.00 0.00 0.00 0.00 0.00 0.00 0.00 0.00 0.00 0.00 0.00 0.00 0.00 0.00 0.00 0.00 0.00 0.00 0.00
0.00 0.00 0.00 0.00 0.00 0.00 0.00 0.00 0.00 0.00 0.00 0.00 0.00 0.00 0.00 0.00 0.00 0.00 0.00 0.00 0.00 0.00 0.00 0.00 0.00 0.00 0.00 0.00 0.00 0.00 0.00 0.00 0.00 0.00 0.00 0.00 0.00 0.00 0.00 0.00 0.00 0.00 0.00
0.00 0.00 0.00 0.00 0.00 0.00 0.00 0.00 0.00 0.00 0.00 0.00 0.00 0.00 0.00 0.00 0.00 0.00 0.00 0.00 0.00 0.00 0.00 0.00 0.00 0.00 0.00 0.00 0.00 0.00 0.00 0.00 0.00 0.00 0.00 0.00 0.00 0.00 0.00 0.00 0.00 0.00 0.00
0.00 0.00 0.00 0.00 0.00 0.00 0.00 0.00 0.00 0.00 0.00 0.00 0.00 0.00 0.00 0.00 0.00 0.00 0.00 0.00 0.00 0.00 0.00 0.00 0.00 0.00 0.00 0.00 0.00 0.00 0.00 0.00 0.00 0.00 0.00 0.00 0.00 0.00 0.00 0.00 0.00 0.00 0.00
0.00 0.00 0.00 0.00 0.00 0.00 0.00 0.00 0.00 0.00 0.00 0.00 0.00 0.00 0.00 0.00 0.00 0.00 0.00 0.00 0.00 0.00 0.00 0.00 0.00 0.00 0.00 0.00 0.00 0.00 0.00 0.00 0.00 0.00 0.00 0.00 0.00 0.00 0.00 0.00 0.00 0.00 0.00
MSLP
1015.81 1014.51 1013.13 1011.89 1010.77 1009.81 1008.78 1007.90 1007.11 1006.02 1005.23 1004.09 1004.02 1003.76 1003.13 1002.35 1001.52 1001.45 1001.65 1002.05 1003.22 1003.30 1003.49 1003.83 1004.01 1004.82 1005.27 1005.97 1006.12 1006.71 1006.89 1007.30 1007.97 1007.84 1008.18 1009.02 1009.47 1009.57 1009.92 1010.20 1010.35 1010.56 1010.72
1016.23 1014.83 1013.60 1012.35 1011.20 1010.08 1009.16 1008.28 1007.32 1005.99 1004.13 1003.51 1003.19 1002.87 1002.35 1002.30 1001.80 1001.31 1001.13 1001.63 1002.80 1003.56 1003.02 1002.72 1003.16 1004.12 1004.70 1005.53 1005.95 1005.74 1006.26 1006.78 1007.30 1007.71 1008.17 1008.99 1009.29 1008.96 1009.26 1009.60 1009.76 1009.77 1009.85
1016.78 1015.56 1014.27 1012.89 1011.79 1010.82 1009.94 1009.20 1008.35 1007.17 1006.17 1005.30 1004.32 1003.80 1003.58 1003.31 1002.92 1002.25 1001.66 1001.48 1002.20 1002.57 1002.49 1002.56 1002.83 1003.66 1004.44 1005.05 1005.51 1005.49 1005.95 1006.45 1006.64 1006.91 1007.26 1007.67 1008.21 1008.29 1008.77 1008.99 1009.23 1009.30 1009.19
1017.57 1016.32 1015.05 1013.71 1012.73 1011.88 1011.01 1010.54 1009.73 1008.35 1007.46 1007.00 1005.93 1005.41 1004.95 1004.73 1004.12 1003.43 1001.87 1001.42 1001.69 1002.23 1002.53 1002.80 1003.74 1004.05 1004.22 1004.62 1005.17 1005.35 1005.70 1006.13 1006.48 1006.74 1007.31 1007.62 1007.68 1007.88 1008.29 1008.53 1008.76 1008.61 1008.49
1018.43 1017.19 1016.05 1014.93 1014.01 1013.32 1012.46 1011.88 1010.97 1009.57 1009.13 1008.50 1007.55 1007.02 1006.57 1005.76 1006.24 1005.83 1004.33 1004.94 1004.18 1003.93 1004.82 1005.28 1005.60 1005.65 1005.32 1005.49 1005.66 1005.87 1005.80 1006.50 1007.00 1006.98 1006.86 1007.66 1008.18 1007.99 1008.40 1008.22 1008.41 1008.25 1007.87
1019.42 1018.42 1017.41 1016.34 1015.08 1014.24 1013.52 1013.44 1012.18 1011.43 1011.04 1009.86 1009.56 1009.24 1008.98 1007.90 1007.91 1008.38 1007.31 1007.58 1005.99 1006.58 1006.22 1006.54 1006.83 1006.78 1006.54 1006.89 1007.15 1007.58 1007.69 1007.66 1007.74 1008.05 1008.23 1008.62 1008.66 1009.01 1009.54 1009.52 1009.39 1008.59 1008.14
1020.72 1019.80 1018.86 1017.95 1017.05 1016.10 1015.40 1014.46 1013.72 1012.56 1013.17 1011.31 1011.31 1010.25 1008.97 1009.60 1010.05 1009.04 1010.02 1007.97 1008.80 1008.64 1008.59 1008.71 1007.03 1008.05 1008.42 1008.12 1007.87 1009.03 1009.24 1009.35 1009.20 1009.71 1009.12 1009.69 1010.19 1010.64 1010.80 1010.43 1010.21 1009.90 1009.17
1021.69 1020.90 1020.18 1019.48 1018.71 1017.98 1017.01 1016.11 1015.71 1015.44 1014.97 1014.55 1014.37 1013.47 1012.37 1012.95 1011.43 1010.28 1010.70 1010.81 1010.88 1010.45 1010.22 1009.84 1010.27 1011.14 1010.23 1009.27 1008.75 1009.45 1010.23 1010.20 1010.30 1011.12 1011.08 1011.87 1011.17 1011.77 1011.53 1011.18 1010.91 1010.55 1009.78
1022.70 1022.09 1021.40 1020.85 1020.16 1019.49 1018.55 1017.95 1017.57 1016.98 1016.71 1016.59 1016.25 1015.09 1014.56 1014.32 1013.52 1013.31 1012.24 1011.80 1011.71 1011.76 1011.51 1012.43 1011.52 1013.25 1012.76 1010.31 1009.27 1011.24 1011.03 1011.79 1012.52 1011.49 1012.76 1012.55 1012.01 1012.28 1011.61 1011.16 1011.11 1010.93 1009.91
1024.13 1023.67 1023.14 1022.38 1021.80 1021.17 1020.49 1019.62 1018.95 1018.41 1018.19 1017.88 1017.62 1017.17 1016.63 1015.76 1014.77 1014.48 1014.07 1014.30 1014.01 1014.50 1014.71 1013.90 1013.65 1012.08 1012.46 1014.11 1011.08 1011.56 1011.59 1013.12 1013.25 1012.61 1012.73 1012.56 1012.48 1012.88 1012.51 1011.97 1011.89 1011.54 1010.95
1025.03 1024.61 1024.00 1023.26 1022.70 1022.32 1021.61 1020.93 1020.37 1019.64 1019.17 1018.70 1018.25 1017.97 1017.56 1016.89 1016.48 1015.68 1015.17 1014.83 1015.36 1015.21 1014.65 1014.21 1013.83 1014.84 1015.44 1014.46 1013.67 1014.39 1014.30 1013.57 1013.32 1013.55 1013.61 1013.63 1012.97 1013.16 1012.52 1012.33 1012.28 1012.33 1011.87
1025.56 1025.21 1025.02 1024.33 1023.82 1023.25 1022.59 1022.04 1021.55 1021.03 1020.52 1020.16 1019.82 1019.59 1019.31 1018.98 1018.54 1017.84 1017.39 1017.20 1016.93 1016.94 1016.76 1017.03 1016.84 1016.55 1016.66 1017.03 1015.36 1014.86 1014.50 1014.75 1014.23 1014.01 1013.80 1013.71 1013.74 1013.27 1013.05 1012.67 1012.17 1012.31 1012.38
1026.28 1026.03 1025.66 1025.40 1024.88 1024.47 1023.98 1023.51 1022.90 1022.51 1022.08 1021.86 1021.50 1021.24 1020.93 1020.68 1020.19 1019.83 1019.22 1018.48 1018.26 1018.26 1018.34 1018.28 1017.84 1017.52 1017.71 1017.06 1016.60 1016.32 1016.38 1015.94 1015.19 1014.82 1014.61 1014.41 1014.40 1014.15 1013.71 1012.92 1012.42 1012.42 1012.26
1027.03 1026.73 1026.22 1026.14 1026.05 1025.61 1025.30 1024.85 1024.45 1024.10 1023.78 1023.66 1023.35 1023.01 1022.78 1022.08 1021.28 1020.74 1020.53 1020.13 1019.75 1019.54 1019.35 1019.01 1018.88 1018.97 1018.56 1018.25 1017.77 1017.84 1017.64 1017.03 1016.39 1015.95 1015.50 1014.96 1014.86 1014.52 1014.07 1013.75 1013.27 1012.89 1012.56
1027.82 1027.62 1027.20 1026.77 1026.38 1026.30 1026.05 1025.77 1025.47 1025.22 1025.10 1024.88 1024.67 1024.36 1023.85 1023.41 1023.08 1022.33 1021.68 1021.29 1021.12 1021.14 1020.79 1020.54 1020.30 1020.06 1019.92 1019.67 1019.36 1019.27 1018.77 1018.00 1017.29 1016.95 1016.41 1015.87 1015.57 1015.18 1014.84 1014.76 1014.40 1013.92 1013.49
1028.45 1028.17 1027.91 1027.59 1027.29 1026.96 1026.73 1026.43 1025.97 1026.04 1025.97 1025.75 1025.52 1025.09 1024.72 1024.38 1024.32 1024.06 1023.53 1023.13 1022.78 1022.44 1022.14 1022.11 1022.08 1022.00 1021.75 1021.40 1020.97 1020.62 1019.82 1019.34 1018.86 1018.01 1017.42 1016.96 1016.50 1016.02 1015.66 1015.46 1015.12 1014.75 1014.23
1029.12 1028.82 1028.59 1028.28 1028.22 1027.87 1027.54 1027.29 1027.25 1026.88 1026.41 1026.50 1026.55 1025.98 1025.39 1025.18 1024.96 1024.98 1024.85 1024.49 1023.97 1023.53 1023.49 1023.75 1023.82 1023.57 1023.18 1022.77 1022.32 1021.88 1021.32 1020.93 1020.10 1019.23 1018.77 1018.20 1017.50 1016.89 1016.47 1016.14 1015.79 1015.40 1014.90
1029.64 1029.46 1029.33 1029.18 1029.02 1028.74 1028.57 1028.43 1028.26 1027.98 1027.74 1027.73 1027.32 1026.95 1026.47 1026.12 1025.73 1025.80 1025.81 1025.58 1025.19 1024.99 1025.09 1024.98 1024.70 1024.45 1024.15 1023.92 1023.65 1023.23 1022.60 1021.98 1021.35 1020.66 1020.02 1019.41 1018.67 1017.90 1017.32 1016.87 1016.49 1016.05 1015.69
1030.14 1030.01 1029.87 1029.82 1029.75 1029.65 1029.47 1029.22 1028.85 1028.63 1028.55 1028.46 1028.11 1027.87 1027.61 1026.93 1026.63 1026.34 1026.55 1026.68 1026.85 1026.73 1026.46 1026.28 1026.08 1025.85 1025.55 1025.13 1024.75 1024.26 1023.74 1023.30 1022.81 1022.16 1021.55 1020.83 1019.88 1019.03 1018.28 1017.68 1017.16 1016.74 1016.37
1030.65 1030.45 1030.29 1030.33 1030.34 1030.17 1029.87 1029.73 1029.55 1029.49 1029.37 1029.19 1029.11 1028.84 1028.12 1027.73 1027.57 1027.41 1027.60 1027.77 1027.63 1027.45 1027.29 1027.24 1027.08 1026.83 1026.49 1026.10 1025.60 1025.36 1024.89 1024.51 1023.98 1023.40 1022.72 1021.93 1020.90 1019.91 1019.22 1018.56 1017.98 1017.43 1016.86
1030.96 1030.81 1030.63 1030.66 1030.61 1030.40 1030.25 1030.30 1030.10 1029.98 1029.81 1029.61 1029.53 1028.79 1028.57 1028.51 1028.66 1028.41 1028.47 1028.45 1028.21 1027.89 1027.61 1027.51 1027.44 1027.28 1026.96 1026.60 1026.32 1026.18 1025.95 1025.60 1025.03 1024.44 1023.71 1022.85 1021.85 1020.81 1019.89 1019.26 1018.67 1018.28 1017.82
1031.21 1031.13 1031.07 1031.08 1030.89 1030.79 1030.59 1030.27 1030.23 1030.24 1030.09 1029.95 1029.65 1029.16 1028.94 1028.76 1028.65 1028.63 1028.62 1028.50 1028.43 1027.82 1027.55 1027.55 1027.73 1027.34 1027.20 1027.00 1026.78 1026.78 1026.50 1026.14 1025.78 1025.31 1024.58 1023.62 1022.70 1021.65 1020.82 1020.02 1019.59 1019.06 1018.62
1031.44 1031.39 1031.40 1031.37 1031.24 1031.04 1030.96 1030.75 1030.72 1030.60 1030.37 1030.12 1029.81 1029.54 1029.28 1029.06 1028.86 1028.58 1028.35 1028.30 1027.68 1027.67 1027.55 1027.36 1027.69 1027.30 1027.09 1027.00 1026.82 1026.80 1026.63 1026.34 1026.17 1025.98 1025.34 1024.21 1023.25 1022.29 1021.61 1021.00 1020.47 1019.98 1019.59
1031.61 1031.61 1031.72 1031.75 1031.68 1031.63 1031.69 1031.68 1031.31 1030.96 1030.73 1030.53 1030.25 1029.84 1029.48 1029.15 1028.86 1028.52 1028.02 1028.13 1027.74 1027.64 1027.35 1027.07 1026.98 1026.77 1026.75 1026.78 1026.71 1026.47 1026.31 1026.21 1025.97 1025.73 1025.21 1024.42 1023.63 1022.85 1022.24 1021.61 1021.09 1020.80 1020.46
1031.91 1031.98 1032.11 1032.23 1032.37 1032.42 1032.31 1032.14 1031.95 1031.63 1031.31 1031.02 1030.75 1030.45 1030.09 1029.69 1029.28 1028.83 1028.18 1027.81 1027.44 1027.58 1026.98 1026.84 1026.61 1026.32 1026.41 1026.42 1026.44 1026.28 1026.15 1025.97 1025.76 1025.44 1025.05 1024.56 1024.16 1023.55 1022.94 1022.43 1021.82 1021.13 1021.13
1032.31 1032.43 1032.60 1032.69 1032.75 1032.80 1032.88 1032.76 1032.51 1032.27 1032.00 1031.74 1031.59 1031.20 1030.68 1030.22 1029.87 1029.73 1029.41 1028.76 1028.18 1027.43 1027.00 1026.70 1026.32 1026.02 1025.98 1026.03 1026.06 1025.96 1025.88 1025.70 1025.52 1025.18 1025.01 1024.73 1024.77 1024.11 1023.56 1023.10 1022.39 1021.77 1021.52
Thickness
5432 5440 5452 5463 5476 5487 5498 5506 5513 5524 5530 5541 5547 5557 5570 5588 5605 5612 5618 5616 5613 5619 5620 5624 5632 5629 5631 5628 5633 5631 5628 5628 5622 5627 5626 5618 5617 5618 5617 5613 5610 5609 5612
5422 5431 5441 5453 5465 5478 5486 5493 5499 5509 5524 5532 5539 5548 5557 5567 5583 5598 5608 5606 5596 5603 5615 5626 5629 5626 5626 5623 5624 5627 5624 5623 5618 5616 5614 5608 5607 5611 5612 5609 5607 5606 5607
5413 5421 5432 5444 5457 5467 5472 5474 5479 5488 5493 5499 5510 5520 5529 5541 5556 5572 5591 5600 5604 5607 5608 5618 5623 5621 5617 5616 5613 5617 5616 5616 5615 5612 5612 5609 5605 5604 5604 5604 5602 5602 5603
5405 5413 5424 5436 5445 5451 5456 5458 5462 5470 5472 5474 5484 5493 5506 5517 5531 5547 5575 5592 5600 5600 5595 5601 5597 5601 5609 5611 5608 5611 5610 5609 5605 5603 5601 5599 5600 5597 5595 5597 5596 5599 5600
5398 5405 5413 5419 5429 5436 5440 5444 5449 5459 5459 5463 5469 5475 5485 5500 5501 5513 5540 5545 5561 5567 5558 5564 5569 5574 5583 5586 5590 5593 5597 5593 5589 5591 5594 5589 5586 5588 5586 5588 5587 5590 5596
5393 5397 5403 5409 5420 5423 5430 5430 5439 5444 5446 5453 5457 5460 5466 5479 5485 5489 5506 5516 5533 5535 5547 5548 5550 5553 5560 5560 5563 5562 5564 5571 5572 5569 5572 5571 5572 5567 5561 5562 5565 5578 5583
5385 5390 5394 5398 5404 5411 5416 5422 5427 5434 5428 5442 5443 5452 5463 5466 5468 5480 5477 5504 5497 5505 5515 5520 5520 5527 5532 5540 5545 5537 5536 5537 5539 5539 5548 5543 5542 5537 5539 5544 5548 5550 5560
5379 5383 5386 5389 5392 5396 5402 5409 5411 5412 5415 5420 5422 5429 5442 5443 5457 5469 5472 5473 5472 5483 5491 5494 5495 5495 5507 5521 5524 5520 5516 5517 5517 5512 5514 5510 5518 5517 5519 5525 5527 5531 5539
5374 5376 5379 5380 5383 5386 5393 5396 5397 5403 5403 5405 5408 5419 5423 5422 5434 5441 5449 5453 5460 5462 5471 5468 5477 5465 5466 5496 5504 5493 5496 5493 5486 5495 5486 5490 5498 5498 5505 5510 5512 5516 5529
5367 5367 5367 5371 5372 5375 5380 5385 5389 5392 5393 5396 5397 5399 5405 5414 5424 5428 5433 5430 5434 5434 5434 5440 5447 5457 5466 5449 5473 5476 5478 5466 5465 5474 5474 5476 5478 5476 5480 5487 5489 5496 5504
5363 5363 5365 5369 5371 5371 5374 5377 5380 5384 5386 5389 5392 5394 5397 5403 5406 5414 5419 5423 5417 5420 5427 5433 5437 5431 5426 5434 5442 5439 5441 5447 5451 5449 5450 5452 5457 5457 5463 5467 5469 5471 5478
5359 5359 5359 5364 5366 5368 5371 5373 5374 5376 5379 5379 5380 5379 5380 5383 5385 5390 5393 5394 5397 5397 5400 5398 5401 5405 5403 5398 5413 5419 5425 5423 5428 5431 5434 5436 5436 5441 5446 5451 5456 5457 5458
5354 5353 5354 5354 5357 5358 5359 5360 5362 5363 5365 5365 5366 5367 5368 5368 5370 5371 5374 5380 5381 5381 5381 5381 5384 5385 5380 5385 5390 5393 5393 5399 5407 5411 5413 5416 5416 5419 5423 5432 5437 5438 5440
5348 5348 5349 5346 5345 5346 5347 5348 5349 5349 5348 5347 5347 5349 5349 5353 5358 5360 5360 5362 5365 5366 5366 5367 5366 5363 5365 5367 5369 5368 5369 5375 5382 5386 5389 5394 5395 5399 5403 5407 5412 5416 5421
5341 5340 5342 5343 5344 5341 5340 5339 5339 5339 5338 5336 5334 5334 5335 5336 5338 5343 5347 5349 5348 5345 5345 5346 5346 5347 5346 5347 5347 5346 5348 5353 5358 5359 5364 5369 5372 5375 5378 5380 5385 5390 5395
5334 5334 5334 5334 5334 5334 5333 5332 5332 5327 5323 5324 5324 5324 5323 5322 5320 5320 5321 5321 5323 5324 5324 5322 5319 5318 5318 5319 5320 5321 5326 5328 5330 5335 5338 5341 5345 5349 5353 5356 5359 5363 5369
5324 5324 5324 5324 5322 5322 5322 5320 5314 5313 5314 5310 5307 5309 5310 5309 5307 5303 5303 5304 5304 5305 5302 5296 5291 5290 5290 5290 5291 5292 5294 5294 5300 5305 5309 5313 5319 5324 5327 5329 5333 5338 5343
5315 5313 5312 5312 5310 5309 5307 5304 5301 5299 5296 5291 5291 5291 5290 5289 5289 5285 5280 5279 5278 5277 5274 5271 5268 5264 5264 5262 5261 5261 5262 5264 5267 5269 5273 5277 5284 5292 5297 5301 5304 5308 5312
5306 5303 5300 5297 5294 5291 5289 5288 5288 5286 5282 5278 5275 5273 5271 5269 5267 5266 5260 5254 5247 5242 5240 5237 5232 5229 5227 5226 5223 5222 5224 5224 5226 5229 5232 5237 5245 5252 5259 5264 5269 5273 5279
5294 5293 5290 5285 5282 5280 5279 5277 5273 5268 5264 5260 5257 5253 5252 5249 5242 5238 5229 5221 5218 5215 5207 5202 5197 5191 5188 5186 5183 5179 5180 5178 5180 5183 5187 5192 5200 5210 5217 5224 5228 5232 5243
5284 5282 5279 5275 5271 5268 5265 5261 5258 5253 5248 5245 5240 5236 5233 5226 5218 5212 5204 5194 5189 5184 5176 5171 5164 5156 5154 5150 5145 5139 5138 5135 5135 5139 5142 5147 5153 5162 5172 5178 5185 5191 5198
5274 5271 5268 5262 5259 5254 5251 5249 5243 5238 5233 5227 5221 5217 5213 5205 5197 5190 5182 5174 5169 5162 5155 5146 5137 5126 5120 5116 5110 5104 5102 5101 5102 5105 5109 5112 5116 5125 5132 5138 5143 5147 5155
5263 5258 5254 5250 5245 5241 5235 5231 5224 5218 5214 5206 5200 5196 5190 5182 5174 5168 5162 5156 5147 5136 5126 5117 5108 5099 5093 5088 5085 5082 5077 5074 5074 5075 5077 5082 5088 5096 5101 5106 5110 5113 5117
5252 5246 5242 5235 5229 5223 5216 5209 5204 5200 5194 5187 5179 5173 5165 5159 5152 5144 5138 5130 5121 5110 5100 5092 5086 5078 5072 5065 5059 5057 5053 5051 5051 5052 5054 5057 5063 5071 5076 5083 5088 5090 5093
5239 5232 5225 5218 5211 5204 5196 5190 5184 5177 5170 5163 5157 5150 5142 5134 5125 5115 5107 5097 5091 5086 5079 5070 5064 5059 5050 5043 5037 5032 5030 5028 5029 5031 5033 5036 5040 5045 5051 5058 5063 5070 5070
5226 5218 5210 5202 5194 5186 5178 5171 5164 5154 5146 5140 5131 5123 5115 5107 5097 5084 5075 5067 5061 5059 5056 5051 5041 5037 5031 5023 5017 5013 5010 5009 5009 5011 5014 5017 5020 5025 5031 5038 5045 5049 5054